Hourly Weather Lukim'ya

Today, 12 May, Wednesday

Time Temperature Precipitation Wind Pressure Humidity
00:00 +6°C° 0 mm 4 mps 754 mmHg 87%
01:00 +6°C° 0 mm 4 mps 754 mmHg 87%
02:00 +6°C° 0 mm 4 mps 754 mmHg 87%
03:00 +6°C° 0 mm 5 mps 754 mmHg 86%
04:00 +6°C° 0 mm 5 mps 754 mmHg 85%
05:00 +7°C° 0 mm 6 mps 754 mmHg 83%
06:00 +7°C° 0.1 mm 6 mps 754 mmHg 82%
07:00 +8°C° 0.1 mm 6 mps 754 mmHg 80%
08:00 +8°C° 0 mm 6 mps 754 mmHg 78%
09:00 +9°C° 0.1 mm 6 mps 753 mmHg 75%
10:00 +10°C° 0.1 mm 6 mps 753 mmHg 72%
11:00 +10°C° 0.1 mm 6 mps 753 mmHg 69%
12:00 +10°C° 0.1 mm 7 mps 753 mmHg 69%
13:00 +11°C° 0.1 mm 7 mps 753 mmHg 69%
14:00 +11°C° 0.1 mm 7 mps 752 mmHg 69%
15:00 +11°C° 0.1 mm 6 mps 752 mmHg 69%
16:00 +10°C° 0.1 mm 5 mps 751 mmHg 70%
17:00 +11°C° 0.1 mm 4 mps 751 mmHg 70%
18:00 +10°C° 0.1 mm 3 mps 751 mmHg 76%
19:00 +9°C° 0.1 mm 3 mps 751 mmHg 82%
20:00 +8°C° 0.1 mm 3 mps 750 mmHg 88%
21:00 +8°C° 0.2 mm 2 mps 750 mmHg 90%
22:00 +8°C° 0.2 mm 2 mps 750 mmHg 92%
23:00 +8°C° 0.2 mm 2 mps 749 mmHg 93%

Tomorrow, 13 May, Thursday

Time Temperature Precipitation Wind Pressure Humidity
00:00 +8°C° 0 mm 1 mps 749 mmHg 93%
01:00 +8°C° 0 mm 1 mps 749 mmHg 93%
02:00 +7°C° 0 mm 0 mps 749 mmHg 93%
03:00 +8°C° 0 mm 1 mps 749 mmHg 93%
04:00 +8°C° 0 mm 1 mps 749 mmHg 92%
05:00 +8°C° 0 mm 1 mps 749 mmHg 92%
06:00 +8°C° 0 mm 2 mps 750 mmHg 88%
07:00 +9°C° 0 mm 2 mps 750 mmHg 83%
08:00 +11°C° 0 mm 3 mps 750 mmHg 79%
09:00 +12°C° 0 mm 3 mps 750 mmHg 72%
10:00 +13°C° 0 mm 3 mps 750 mmHg 66%
11:00 +14°C° 0 mm 4 mps 750 mmHg 59%
12:00 +15°C° 0 mm 4 mps 750 mmHg 56%
13:00 +17°C° 0 mm 4 mps 750 mmHg 54%
14:00 +16°C° 0 mm 5 mps 750 mmHg 51%
15:00 +17°C° 0 mm 4 mps 749 mmHg 54%
16:00 +17°C° 0 mm 3 mps 749 mmHg 58%
17:00 +17°C° 0 mm 3 mps 749 mmHg 61%
18:00 +16°C° 0 mm 3 mps 749 mmHg 64%
19:00 +14°C° 0 mm 3 mps 749 mmHg 67%
20:00 +13°C° 0 mm 3 mps 749 mmHg 69%
21:00 +12°C° 0 mm 3 mps 749 mmHg 71%
22:00 +12°C° 0 mm 3 mps 749 mmHg 73%
23:00 +12°C° 0 mm 3 mps 749 mmHg 75%

Day after tomorrow, 14 May, Friday

Time Temperature Precipitation Wind Pressure Humidity
00:00 +12°C° 0.1 mm 3 mps 748 mmHg 76%
01:00 +11°C° 0.1 mm 3 mps 748 mmHg 77%
02:00 +11°C° 0.1 mm 3 mps 748 mmHg 78%
03:00 +11°C° 0 mm 3 mps 748 mmHg 82%
04:00 +11°C° 0 mm 3 mps 748 mmHg 85%
05:00 +10°C° 0 mm 3 mps 748 mmHg 89%
06:00 +12°C° 0 mm 3 mps 748 mmHg 84%
07:00 +16°C° 0 mm 3 mps 747 mmHg 79%
08:00 +18°C° 0 mm 4 mps 747 mmHg 74%
09:00 +19°C° 0 mm 4 mps 747 mmHg 69%
10:00 +20°C° 0 mm 4 mps 747 mmHg 64%
11:00 +21°C° 0 mm 5 mps 747 mmHg 59%
12:00 +22°C° 0 mm 5 mps 747 mmHg 57%
13:00 +22°C° 0 mm 5 mps 747 mmHg 54%
14:00 +23°C° 0 mm 5 mps 747 mmHg 52%
15:00 +22°C° 0 mm 4 mps 747 mmHg 55%
16:00 +22°C° 0 mm 4 mps 747 mmHg 59%
17:00 +22°C° 0 mm 4 mps 747 mmHg 62%
18:00 +20°C° 0.2 mm 3 mps 747 mmHg 68%
19:00 +18°C° 0.2 mm 3 mps 747 mmHg 74%
20:00 +17°C° 0.2 mm 2 mps 747 mmHg 80%
21:00 +16°C° 0.4 mm 2 mps 747 mmHg 84%
22:00 +15°C° 0.4 mm 2 mps 747 mmHg 87%
23:00 +15°C° 0.4 mm 2 mps 747 mmHg 90%

15 May, Saturday

Time Temperature Precipitation Wind Pressure Humidity
00:00 +14°C° 0 mm 2 mps 747 mmHg 91%
01:00 +13°C° 0 mm 2 mps 747 mmHg 92%
02:00 +12°C° 0 mm 3 mps 747 mmHg 93%
03:00 +13°C° 0 mm 2 mps 747 mmHg 92%
04:00 +13°C° 0 mm 2 mps 748 mmHg 91%
05:00 +12°C° 0 mm 2 mps 748 mmHg 91%
06:00 +13°C° 0 mm 2 mps 748 mmHg 88%
07:00 +14°C° 0 mm 2 mps 748 mmHg 85%
08:00 +15°C° 0 mm 2 mps 749 mmHg 82%
09:00 +17°C° 0 mm 2 mps 749 mmHg 77%
10:00 +18°C° 0 mm 3 mps 749 mmHg 71%
11:00 +20°C° 0 mm 3 mps 749 mmHg 66%
12:00 +20°C° 0.1 mm 3 mps 749 mmHg 63%
13:00 +21°C° 0.1 mm 2 mps 749 mmHg 61%
14:00 +21°C° 0.1 mm 2 mps 749 mmHg 58%
15:00 +21°C° 0.2 mm 2 mps 749 mmHg 61%
16:00 +21°C° 0.2 mm 2 mps 749 mmHg 64%
17:00 +20°C° 0.2 mm 2 mps 749 mmHg 67%
18:00 +20°C° 0.1 mm 1 mps 749 mmHg 72%
19:00 +18°C° 0.1 mm 1 mps 749 mmHg 78%
20:00 +15°C° 0.1 mm 0 mps 749 mmHg 83%
21:00 +15°C° 0 mm 1 mps 749 mmHg 84%
22:00 +15°C° 0 mm 1 mps 749 mmHg 85%
23:00 +14°C° 0 mm 1 mps 749 mmHg 86%

16 May, Sunday

Time Temperature Precipitation Wind Pressure Humidity
00:00 +14°C° 0 mm 1 mps 749 mmHg 87%
01:00 +14°C° 0 mm 1 mps 750 mmHg 89%
02:00 +13°C° 0 mm 2 mps 750 mmHg 90%
03:00 +13°C° 0 mm 2 mps 750 mmHg 90%
04:00 +13°C° 0 mm 2 mps 750 mmHg 90%
05:00 +13°C° 0 mm 2 mps 750 mmHg 90%
06:00 +15°C° 0 mm 2 mps 750 mmHg 85%
07:00 +17°C° 0 mm 2 mps 750 mmHg 79%
08:00 +19°C° 0 mm 2 mps 750 mmHg 73%
09:00 +20°C° 0 mm 3 mps 750 mmHg 68%
10:00 +22°C° 0 mm 3 mps 750 mmHg 64%
11:00 +24°C° 0 mm 3 mps 749 mmHg 59%
12:00 +25°C° 0 mm 3 mps 749 mmHg 56%
13:00 +25°C° 0 mm 3 mps 749 mmHg 53%
14:00 +26°C° 0 mm 3 mps 749 mmHg 50%
15:00 +25°C° 0 mm 3 mps 748 mmHg 54%
16:00 +25°C° 0 mm 3 mps 748 mmHg 58%
17:00 +24°C° 0 mm 3 mps 748 mmHg 62%
18:00 +22°C° 0 mm 3 mps 748 mmHg 67%
19:00 +20°C° 0 mm 4 mps 747 mmHg 72%
20:00 +19°C° 0 mm 4 mps 747 mmHg 78%
21:00 +18°C° 0.1 mm 4 mps 747 mmHg 80%
22:00 +17°C° 0.1 mm 4 mps 747 mmHg 82%
23:00 +17°C° 0.1 mm 4 mps 746 mmHg 84%

17 May, Monday

Time Temperature Precipitation Wind Pressure Humidity
00:00 +17°C° 0.9 mm 4 mps 746 mmHg 87%
01:00 +16°C° 0.9 mm 5 mps 746 mmHg 90%
02:00 +15°C° 0.9 mm 5 mps 745 mmHg 93%
03:00 +15°C° 0.1 mm 5 mps 745 mmHg 93%
04:00 +15°C° 0.1 mm 4 mps 744 mmHg 93%
05:00 +15°C° 0.1 mm 4 mps 744 mmHg 94%
06:00 +16°C° 0 mm 5 mps 744 mmHg 88%
07:00 +19°C° 0 mm 5 mps 744 mmHg 82%
08:00 +20°C° 0 mm 6 mps 743 mmHg 77%
09:00 +21°C° 0 mm 6 mps 743 mmHg 71%
10:00 +22°C° 0 mm 6 mps 743 mmHg 65%
11:00 +23°C° 0 mm 6 mps 743 mmHg 59%
12:00 +24°C° 0 mm 6 mps 743 mmHg 59%
13:00 +24°C° 0 mm 6 mps 743 mmHg 58%
14:00 +26°C° 0 mm 6 mps 743 mmHg 58%
15:00 +25°C° 0 mm 5 mps 743 mmHg 61%
16:00 +25°C° 0 mm 4 mps 743 mmHg 64%
17:00 +25°C° 0 mm 4 mps 743 mmHg 67%
18:00 +22°C° 0.8 mm 3 mps 743 mmHg 74%
19:00 +21°C° 0.8 mm 3 mps 743 mmHg 82%
20:00 +19°C° 0.8 mm 3 mps 743 mmHg 89%
21:00 +18°C° 1.6 mm 3 mps 744 mmHg 91%
22:00 +18°C° 1.6 mm 2 mps 744 mmHg 93%
23:00 +17°C° 1.6 mm 2 mps 744 mmHg 95%
Show more

We Need Your Consent

Meteoprog and our Service Providers may store and access personal data such as cookies, device identifiers or other similar technologies on your device and process such data to personalise content and ads, as well as provide social media features and to analyse the traffic.

  • Store and/or access information on your device

    Cookies, device identifiers or other information can be stored or accessed on your device for the purposes indicated above.

  • Personalised ads and content, ad and content measurement, audience insights, and products development

    Ads and content can be personalised based on a profile. More data can be added to better personalise ads and content. Ad and content performance can be measured. Insights about the audience who saw the ads and content can be derived. Such data can be used to develop or improve user’s experience, systems and software.

By clicking ‘I Agree’ you will allow the use of indicated cookies, device identifiers, web beacons or other similar technologies. Your settings can be changed in the browser on your device.

For certain purposes, legitimate interests may be relied on, rather than consent. You can read more about this in our Privacy and Cookie Policy.